Location: ???????
(55.8719°N, 38.1523°E)
Time: 08:22:24
(UTC+00:00)

Cosmos 1980 - Pass Details

Date: 14 April 2024
Orbit: 840 x 845 km, 71.0° (Epoch: 19 May)

Event Time Altitude Azimuth Distance (km) Brightness Sun altitude
Exits shadow 01:30:59 - 216° (SW) 2,769 5.8 -7.6°
Reaches altitude 10° 01:31:48 10° 216° (SW) 2,458 5.6 -7.5°
Maximum altitude 01:37:28 83° 305° (NW) 856 3.7 -6.8°
Drops below altitude 10° 01:43:09 10° 34° (NE) 2,470 7.2 -6.1°
Sets 01:45:37 0° 35° (NE) 3,408 8.1 -5.8°
